Location: B�di�
(14.6834°N, 3.1047°W)
Time: 17:39:01
(UTC+00:00)

USA 238 DEB - Pass Details

Date: 24 January 2020
Orbit: 1021 x 1191 km, 63.4° (Epoch: 20 February)

Event Time Altitude Azimuth Distance (km) Brightness Sun altitude
Rises 19:12:42 0° 211° (SSW) 3,757 7.3 -15.9°
Reaches altitude 10° 19:15:19 10° 213° (SSW) 2,801 6.6 -16.5°
Maximum altitude 19:21:49 66° 295° (WNW) 1,107 3.9 -18.0°
Drops below altitude 10° 19:28:26 10° 17° (NNE) 2,838 5.6 -19.6°
Enters shadow 19:28:44 - 17° (NNE) 2,946 5.7 -19.6°
